This demonstration page uses our WeatherBlox Daily Observations layout. Learn more.

Left ArrowRight Arrow

39.12711, -84.51439

Hourly Observations for November 5, 2020

Temp ( °F °C ) Dew Point ( °F °C ) Humidity (%) Winds ( mph kmh ) Pressure ( in mb ) Visibility ( mi km ) Precip ( " mm )
12:53 am 00:53 Clear 42 5.6 40 4.4 92 92 Calm 30.31 1027 8 13 0.00 0.00
1:53 am 01:53 Clear 42 5.6 40 4.4 92 92 Calm 30.31 1026 10 16 0.00 0.00
2:53 am 02:53 Clear 41 5 40 4.4 96 96 Calm 30.31 1026 10 16 0.00 0.00
3:53 am 03:53 Clear 40 4.4 37 2.8 89 89 Calm 30.32 1027 9 14 0.00 0.00
4:53 am 04:53 Clear 41 5 39 3.9 93 93 Calm 30.33 1027 10 16 0.00 0.00
5:53 am 05:53 Clear with Mist and Fog 40 4.4 39 3.9 97 97 Calm 30.33 1027 6 10 0.00 0.00
6:47 am 06:47 Clear with Mist and Fog 39 4 37 3 93 93 Calm 30.36 1028 2 3 0.00 0.00
6:48 am 06:48 Clear with Mist and Fog 39 3.9 38 3.3 96 96 Calm 30.34 1028 2 2 0.00 0.00
6:56 am 06:56 Clear with Patchy Fog 40 4.4 39 3.9 97 97 Calm 30.36 1028 10 16 0.00 0.00
7:53 am 07:53 Sunny 40 4.4 39 3.9 97 97 Calm 30.35 1028 10 16 0.00 0.00
8:53 am 08:53 Sunny 48 8.9 44 6.7 86 86 Calm 30.36 1028 10 16 0.00 0.00
9:53 am 09:53 Sunny 56 13.3 45 7.2 67 67 S 3 6 30.35 1028 10 16 0.00 0.00
10:53 am 10:53 Sunny 63 17.2 44 6.7 50 50 S 8 13 30.33 1027 10 16 0.00 0.00
11:53 am 11:53 Sunny 66 18.9 44 6.7 45 45 SW 9 15 30.32 1027 10 16 0.00 0.00
12:53 pm 12:53 Sunny 66 18.9 44 6.7 45 45 SW 9 15 30.31 1026 10 16 0.00 0.00
1:53 pm 13:53 Sunny 67 19.4 44 6.7 44 44 SSW 12 19 30.29 1026 10 16 0.00 0.00
2:53 pm 14:53 Sunny 67 19.4 45 7.2 45 45 SSW 8 13 30.29 1026 10 16 0.00 0.00
3:53 pm 15:53 Sunny 64 17.8 47 8.3 54 54 S 10 17 30.28 1025 10 16 0.00 0.00
4:53 pm 16:53 Sunny 63 17.2 46 7.8 54 54 S 7 11 30.28 1025 10 16 0.00 0.00
5:53 pm 17:53 Clear 61 16.1 44 6.7 54 54 SW 3 6 30.28 1025 10 16 0.00 0.00
6:53 pm 18:53 Clear 55 12.8 46 7.8 72 72 S 3 6 30.29 1026 10 16 0.00 0.00
7:53 pm 19:53 Clear 53 11.7 45 7.2 74 74 Calm 30.29 1026 10 16 0.00 0.00
8:53 pm 20:53 Clear 48 8.9 44 6.7 86 86 Calm 30.29 1026 10 16 0.00 0.00
9:53 pm 21:53 Clear 45 7.2 43 6.1 93 93 Calm 30.30 1026 10 16 0.00 0.00
10:53 pm 22:53 Clear 46 7.8 44 6.7 93 93 Calm 30.30 1026 10 16 0.00 0.00
11:05 pm 23:05 Clear with Mist and Fog 43 6.1 42 5.6 97 97 Calm 30.32 1027 2 2 0.00 0.00
11:15 pm 23:15 Clear with Mist and Fog 43 6.1 42 5.6 97 97 Calm 30.32 1027 1 1 0.00 0.00
11:28 pm 23:28 Clear with Mist and Fog 43 6.1 42 5.6 97 97 Calm 30.32 1027 2 2 0.00 0.00
11:51 pm 23:51 Clear with Mist and Fog 43 6 41 5 93 93 SSE 3 6 30.33 1027 3 5 0.00 0.00
11:52 pm 23:52 Clear with Mist and Fog 42 5.6 41 5 96 96 SSE 3 6 30.31 1026 3 5 0.00 0.00

Powered by AerisWeather